Regional Weather Roundup
Issued by NWS Kansas City/Pleasant Hill, MO

Home | Current Version | Previous Version | Text Only | Print | Product List | Glossary On
Versions: 1 2 3 4 5 6 7 8 9 10 11 12 13 14 15 16 17 18 19 20 21 22 23 24 25 26 27 28 29 30 31 32 33 34 35 36 37 38 39 40 41 42 43 44 45 46 47 48 49 50
000
ASUS43 KEAX 272311
RWREAX

WEATHER ROUNDUP FOR EASTERN KANSAS AND NORTHWEST MISSOURI
NATIONAL WEATHER SERVICE KANSAS CITY/PLEASANT HILL MO
600 PM CDT MON APR 27 2015

KSZ040-057-103>105-MOZ028-029-037-043-280000-
...KANSAS CITY METROPOLITAN AREA...

CITY           SKY/WX    TMP DP  RH WIND       PRES   REMARKS
K.C. INTL      CLOUDY    64  35  34 NE12      30.07S
K.C. DOWNTOWN  PTSUNNY   65  36  34 NE10      30.05F
LEES SUMMIT    SUNNY     64  37  36 NE10G22   30.06F
OLATHE - IXD   SUNNY     66  35  31 NE12G20   30.05F
OLATHE - OJC   MOSUNNY   64  34  32 E15G23    30.04F
LAWRENCE       MOSUNNY   66  35  31 NE14G22   30.06F

$$

MOZ001>008-011>017-020>025-030>033-038>040-044>046-053-054-280000-
...NORTHERN AND CENTRAL MISSOURI...

CITY           SKY/WX    TMP DP  RH WIND       PRES   REMARKS
ST. JOSEPH     PTSUNNY   67  34  29 NE14G21   30.07F
MOSBY          MOCLDY    64  32  29 E12       30.06F
WHITEMAN AFB   MOSUNNY   65  36  33 NE10G20   30.04S
CLINTON        SUNNY     66  37  34 E17       30.03F
SEDALIA        MOSUNNY   65  35  33 NE10      30.06S
WARSAW         NOT AVBL
MARSHALL       PTSUNNY   68  37  32 NE13      30.06S
CHILLICOTHE      N/A     68  37  32 NE7       30.07F
MOBERLY        MOSUNNY   66  34  30 NE14      30.07F
KIRKSVILLE     SUNNY     65  37  35 NE9       30.08F

$$

MOZ041-047>049-056>058-063>065-088>090-097-280000-
...EASTERN AND SOUTHERN MISSOURI...

CITY           SKY/WX    TMP DP  RH WIND       PRES   REMARKS
ST. LOUIS INTL PTSUNNY   65  35  33 NE13      30.04F
SPIRIT OF STL  PTSUNNY   64  35  34 NE13G18   30.03S
COLUMBIA       PTSUNNY   64  35  34 NE13      30.04F
JEFFERSON CITY PTSUNNY   66  32  28 N9        30.04F
MEXICO         PTSUNNY   66  41  39 N12G17    30.06
HANNIBAL       SUNNY     66  28  24 NE12      30.06F
LEBANON        MOSUNNY   63  32  31 NE12      30.01S
OSAGE BEACH    SUNNY     66  34  30 NE15      30.02F
SPRINGFIELD    CLOUDY    63  33  32 NE21G28   29.97S
BRANSON        CLOUDY    63  32  31 E13G20    29.96S
NEVADA         PTSUNNY   63  37  39 NE17G23   30.01F
JOPLIN         CLOUDY    63  36  36 NE10G21   29.97S
WEST PLAINS    CLOUDY    62  31  31 E10       29.98S

$$

IAZ060-094-KSZ022-034>040-054-083-096-NEZ052-066-093-280000-
...KANSAS...SOUTHEAST NEBRASKA AND IOWA...

CITY           SKY/WX    TMP DP  RH WIND       PRES   REMARKS
TOPEKA         MOSUNNY   66  34  30 NE16      30.06S
MANHATTAN      MOSUNNY   65  36  34 NE18G24   30.06S
EMPORIA        PTSUNNY   63  36  36 NE16G28   30.03S
CHANUTE        PTSUNNY   63  36  36 NE18G28   29.99S
WICHITA        CLOUDY    63  34  33 NE20      30.03R
OMAHA          PTSUNNY   70  30  22 NE15      30.10F
LINCOLN        SUNNY     67  31  26 NE16      30.12F
FALLS CITY     MOSUNNY   67  32  27 E16       30.07F
LAMONI         SUNNY     66  34  30 NE10      30.09S
DES MOINES     MOSUNNY   68  29  23 E10       30.10F

$$



USA.gov is the U.S. government's official web portal to all federal, state and local government web resources and services.